WESTFORD NEEDLES *, 3267

Orbit data source: Space-Track

WESTFORD NEEDLES *, 3267 is space debris in LEO originally from a launch on Thu, 09 May 1963 UTC launched from the Air Force Western Test Range (AFWTR). Debris objects in space refer to the collection of defunct objects orbiting the Earth. Examples of debris include non-operational satellites, rocket bodies, and fragments generated from explosions, collisions, or faulty payload assembly.

Loading next visibility...
Identifier
3267, 1963-014CF
Orbit
LEO
Country
Flag of USUS
Related business
Manufacturer
RCA Victor
Mission
Spacecraft
Bus & Motor
Unknown
Mass
Unknown
Launch date (UTC)
1963-05-09 (62 years ago)
Launch vehicle
Unknown
Launch site
Air Force Western Test Range (AFWTR)
Object type
Payload
Rocket body
Debris
Shape & HBR
Unknown
Radar Cross Section
Small (<0.1 m²)

Expand to show TLE details & history
Last TLE update: 3 days ago

TLE from 3 days ago
0 WESTFORD NEEDLES *
1 03267U 63014CF  25255.86047801  .00000124  00000-0  86818-4 0  9997
2 03267  88.3806 112.8135 1687973 335.8372  17.1641 11.33939647510907
Epoch: 2025-09-12T20:39Z
TLE epoch observation values (Epoch: 2025-09-12T20:39:05.3Z)
Latitude
-0.00009°
Longitude
170.93929°
Altitude
670.798 km
Speed
8.094 km/s
True Right ascension
07h 31m 15s
True Declination
0° 00' 00"
Sunlit
Object was in daylight at epoch
Visualization orbit readout
Latitude
Unknown
Longitude
Unknown
Altitude
Unknown
Speed
Unknown
Apparent Right ascension
Unknown
Apparent Declination
Unknown
Sunlit
N/A
Visualization observer readout
Local Sidereal Time
17:22:39
Azimuth
Unknown
Elevation
Unknown
Doppler factor
Unknown
Orbital elements
Apogee altitude
3,400.368 km
Perigee altitude
575.951 km
Semi-major axis
8,366.296 km
Eccentricity
0.1688
Inclination
88.3806°
RAAN
112.8135°
Arg. of periapsis
335.8372°
True anomaly
24.27635°
Mean anomaly
17.1641°
Eccentric anomaly
20.56068°
Mean motion
2.83624 °/min
Orbital period
126.93 mins
BSTAR
0.000086818
Loading maneuver chart data...
Computing Atmospheric mass density...

Documentation

Showing up to 5 results
|